Location: Chandrammap?lem
(16.9200°N, 81.0051°E)
Time: 03:10:22
(UTC+00:00)

CSL-04 Rocket - Pass Details

Date: 29 May 2024
Orbit: 805 x 859 km, 98.8° (Epoch: 17 June)

Event Time Altitude Azimuth Distance (km) Brightness Sun altitude
Exits shadow 15:02:38 58° 184° (S) 936 3.7 -25.5°
Maximum altitude 15:03:40 80° 257° (WSW) 823 3.6 -25.7°
Drops below altitude 10° 15:08:56 10° 345° (NNW) 2,382 6.7 -26.7°
Sets 15:11:16 0° 346° (NNW) 3,313 7.5 -27.2°
